Regional Weather Roundup
Issued by NWS

Home | Current Version | Previous Version | Graphics & Text | Print | Product List | Glossary On
Versions: 1 2 3 4 5 6 7 8 9 10 11 12 13 14 15 16 17 18 19 20 21 22 23 24 25 26 27 28 29 30 31 32 33 34 35 36 37 38 39 40 41 42 43 44 45 46 47 48 49 50
000
ASUS43 KBIS 160720
RWRND

NORTH DAKOTA REGIONAL WEATHER ROUNDUP
NATIONAL WEATHER SERVICE BISMARCK ND
200 AM CDT TUE SEP 16 2014

NOTE: "FAIR" INDICATES FEW OR NO CLOUDS BELOW 12,000 FEET WITH NO
SIGNIFICANT WEATHER AND/OR OBSTRUCTIONS TO VISIBILITY.


NDZ001>003-009>011-017-160800-
NORTHWEST NORTH DAKOTA

CITY           SKY/WX    TMP DP  RH WIND       PRES   REMARKS
WILLISTON      CLEAR     39  34  82 N3        30.05S
MINOT          CLEAR     51  40  65 SW9       30.05S
MINOT AFB      CLEAR     48  40  75 SW6       30.04F
$$

NDZ018>021-031>035-040>046-160800-
SOUTHWEST NORTH DAKOTA

CITY           SKY/WX    TMP DP  RH WIND       PRES   REMARKS
BISMARCK       CLEAR     45  38  76 E3        30.11S
DICKINSON      CLEAR     43  38  82 S10       30.05F
GARRISON         N/A     45  40  82 CALM      30.07F
HETTINGER ARPT CLEAR     44  37  76 E5        30.09F
$$

NDZ004>008-012>016-024-026-027-054-160800-
NORTHEAST NORTH DAKOTA

CITY           SKY/WX    TMP DP  RH WIND       PRES   REMARKS
GRAND FORKS    CLEAR     43  39  86 SW6       30.06S
GRND FRKS AFB  CLEAR     46  40  80 SW6       30.06F
DEVILS LAKE    CLEAR     54  37  54 SW12      30.06S
$$

NDZ022-023-025-028>030-036>039-047>053-160800-
SOUTHEAST NORTH DAKOTA

CITY           SKY/WX    TMP DP  RH WIND       PRES   REMARKS
FARGO          CLEAR     50  38  63 SW13      30.12S
JAMESTOWN      CLEAR     43  37  79 S8        30.11F
$$



USA.gov is the U.S. government's official web portal to all federal, state and local government web resources and services.